GW1718 Weather Reports


Display with metric or nautical units.
time (UTC)temp
F
wind
direction
speed
MPH
gust
MPH
rain 1hr
in
rain 24hr
in
rain mn
in
humidity
%
barometer
mb
20260510033556 74 114 6.0 9.0 0.00 0.00 0.00 84 1010.7
20260510033111 74 113 5.0 9.0 0.00 0.00 0.00 84 1010.6
20260510032555 74 122 4.0 7.0 0.00 0.00 0.00 84 1010.7
20260510032055 74 86 5.0 8.0 0.00 0.00 0.00 83 1010.5
20260510031603 74 102 5.0 8.0 0.00 0.00 0.00 84 1010.5
20260510031055 74 105 4.0 8.0 0.00 0.00 0.00 84 1010.6
20260510030556 73 94 4.0 6.0 0.00 0.00 0.00 84 1010.4
20260510030057 73 94 3.0 5.0 0.00 0.00 0.00 85 1010.2
20260510025554 73 94 3.0 5.0 0.00 0.00 0.00 86 1010.1
20260510025059 73 90 3.0 5.0 0.00 0.00 0.00 87 1010.2
20260510024609 73 80 3.0 5.0 0.00 0.00 0.00 87 1010.1
20260510024055 72 76 3.0 4.0 0.00 0.00 0.00 87 1010.1
20260510023555 72 77 3.0 6.0 0.00 0.00 0.00 88 1010.0
20260510023100 72 79 3.0 6.0 0.00 0.00 0.00 87 1010.0
20260510022555 72 70 4.0 6.0 0.00 0.00 0.00 88 1009.9
20260510022054 72 62 2.0 3.0 0.00 0.00 0.00 88 1009.9
20260510021553 71 71 0.0 0.0 0.00 0.00 0.00 88 1009.8
20260510021054 71 0 0.0 0.0 0.00 0.00 0.00 88 1009.7
20260510020555 71 0 0.0 0.0 0.00 0.00 0.00 88 1009.6
20260510020055 71 0 0.0 0.0 0.00 0.00 0.00 91 1009.6
20260510015555 71 0 0.0 0.0 0.00 0.00 0.00 89 1009.4
20260510015054 71 0 0.0 2.0 0.00 0.00 0.00 90 1009.2
20260510014613 71 0 0.0 2.0 0.00 0.00 0.00 90 1009.3
20260510014055 71 0 1.0 4.0 0.00 0.00 0.00 91 1009.2
20260510013556 70 356 0.0 4.0 0.00 0.00 0.00 93 1009.2
20260510013104 70 266 2.0 4.0 0.00 0.00 0.00 95 1009.2
20260510012555 70 281 0.0 5.0 0.00 0.00 0.00 96 1009.1
20260510012055 70 77 3.0 5.0 0.00 0.00 0.00 96 1009.0
20260510011554 70 81 4.0 5.0 0.00 0.00 0.00 96 1008.9
20260510011056 69 81 2.0 4.0 0.00 0.00 0.00 96 1008.8
20260510010552 69 65 1.0 4.0 0.00 0.00 0.00 96 1008.9
20260510010055 69 0 1.0 4.0 0.00 0.00 0.00 96 1008.8
20260510005553 70 78 0.0 0.0 0.00 0.00 0.00 96 1008.8
20260510005053 69 0 0.0 0.0 0.00 0.00 0.00 96 1008.7
20260510004603 69 0 0.0 0.0 0.00 0.00 0.00 96 1008.7
20260510004052 69 0 0.0 2.0 0.00 0.00 0.00 95 1008.8
20260510003553 69 0 0.0 4.0 0.00 0.00 0.00 96 1008.8
20260510003054 69 0 1.0 8.0 0.00 0.00 0.00 96 1008.8
20260510002552 69 181 3.0 10.0 0.00 0.00 0.00 95 1008.8
20260510002052 68 203 6.0 12.0 0.00 0.00 0.00 95 1008.8
20260510001555 68 197 6.0 12.0 0.00 0.00 0.00 95 1008.8
20260510001053 68 249 8.0 12.0 0.00 0.00 0.00 95 1008.9
20260510000556 67 214 5.0 8.0 0.00 0.00 0.00 96 1009.1
20260510000058 67 238 1.0 6.0 0.00 0.00 0.00 96 1009.3
20260509235557 67 271 3.0 8.0 0.00 0.00 0.00 95 1009.4
20260509235057 67 288 4.0 10.0 0.00 0.00 0.00 93 1009.4
20260509234553 67 288 3.0 10.0 0.00 0.00 0.00 92 1009.5
20260509234053 69 274 6.0 11.0 0.00 0.00 0.00 90 1009.4
20260509233553 71 291 6.0 17.0 0.00 0.00 0.00 88 1009.1
20260509233054 73 307 9.0 26.0 0.00 0.00 0.00 84 1009.5
20260509232553 74 314 14.0 26.0 0.00 0.00 0.00 84 1008.8
20260509232054 74 341 12.0 18.0 0.00 0.00 0.00 81 1008.7
20260509231608 76 21 12.0 16.0 0.00 0.00 0.00 80 1008.7
20260509231052 77 43 11.0 16.0 0.00 0.00 0.00 78 1008.9
20260509230554 78 51 10.0 18.0 0.00 0.00 0.00 71 1008.8
20260509230057 79 49 10.0 18.0 0.00 0.00 0.00 69 1008.6
20260509225553 81 46 13.0 18.0 0.00 0.00 0.00 68 1008.8
20260509225056 83 53 9.0 15.0 0.00 0.00 0.00 65 1008.7
20260509224558 85 58 10.0 15.0 0.00 0.00 0.00 62 1008.5
20260509224055 89 77 3.0 7.0 0.00 0.00 0.00 60 1008.4
20260509223553 90 132 3.0 6.0 0.00 0.00 0.00 59 1008.2
20260509223104 89 139 1.0 5.0 0.00 0.00 0.00 58 1008.1
20260509222555 89 160 1.0 6.0 0.00 0.00 0.00 61 1008.2
20260509222053 89 138 4.0 6.0 0.00 0.00 0.00 59 1008.1
20260509221558 90 167 3.0 5.0 0.00 0.00 0.00 60 1007.9
20260509221055 90 113 3.0 5.0 0.00 0.00 0.00 57 1008.0
20260509220555 91 152 3.0 5.0 0.00 0.00 0.00 56 1007.9
20260509220053 91 141 2.0 5.0 0.00 0.00 0.00 54 1007.9
20260509215559 91 148 2.0 7.0 0.00 0.00 0.00 58 1008.1
20260509215054 91 185 3.0 7.0 0.00 0.00 0.00 57 1008.2
20260509214555 90 150 3.0 7.0 0.00 0.00 0.00 57 1008.1
20260509214055 91 179 3.0 6.0 0.00 0.00 0.00 58 1008.1
20260509213554 91 279 3.0 6.0 0.00 0.00 0.00 53 1008.2
20260509213056 91 212 2.0 7.0 0.00 0.00 0.00 53 1008.3
20260509212555 90 164 1.0 7.0 0.00 0.00 0.00 57 1008.4
20260509212055 90 231 4.0 8.0 0.00 0.00 0.00 56 1008.3
20260509211559 90 200 4.0 8.0 0.00 0.00 0.00 56 1008.5
20260509211055 90 233 1.0 6.0 0.00 0.00 0.00 63 1008.5
20260509210555 89 145 3.0 6.0 0.00 0.00 0.00 57 1008.5
20260509210107 89 205 2.0 7.0 0.00 0.00 0.00 61 1008.6
20260509205555 89 219 2.0 7.0 0.00 0.00 0.00 61 1008.7
20260509205055 88 314 3.0 6.0 0.00 0.00 0.00 61 1008.7
20260509204554 88 309 3.0 7.0 0.00 0.00 0.00 61 1008.9
20260509204054 87 296 3.0 9.0 0.00 0.00 0.00 61 1008.9
20260509203558 87 72 4.0 9.0 0.00 0.00 0.00 58 1009.0
20260509203056 88 309 6.0 9.0 0.00 0.00 0.00 60 1009.2
20260509202558 88 293 1.0 5.0 0.00 0.00 0.00 62 1009.2
20260509202055 88 326 2.0 6.0 0.00 0.00 0.00 61 1009.3
20260509201558 88 298 2.0 6.0 0.00 0.00 0.00 61 1009.2
20260509201055 88 300 1.0 5.0 0.00 0.00 0.00 59 1009.2
20260509200554 88 243 3.0 7.0 0.00 0.00 0.00 64 1009.1
20260509200057 87 267 3.0 7.0 0.00 0.00 0.00 60 1009.0
20260509195556 87 298 2.0 5.0 0.00 0.00 0.00 62 1009.1
20260509195055 87 269 2.0 7.0 0.00 0.00 0.00 64 1009.2
20260509194558 87 277 2.0 7.0 0.00 0.00 0.00 69 1009.2
20260509194055 87 275 3.0 8.0 0.00 0.00 0.00 66 1009.2
20260509193556 87 297 2.0 8.0 0.00 0.00 0.00 69 1009.2
20260509193058 88 309 2.0 6.0 0.00 0.00 0.00 67 1009.3
20260509192558 87 183 3.0 6.0 0.00 0.00 0.00 66 1009.4
20260509192056 87 236 3.0 5.0 0.00 0.00 0.00 65 1009.4
20260509191554 87 267 2.0 7.0 0.00 0.00 0.00 65 1009.6
20260509191054 86 284 4.0 7.0 0.00 0.00 0.00 65 1009.7
20260509190552 87 311 1.0 5.0 0.00 0.00 0.00 66 1009.7
20260509190058 87 205 2.0 6.0 0.00 0.00 0.00 67 1009.7
20260509185553 86 319 3.0 6.0 0.00 0.00 0.00 65 1009.9
20260509185056 86 224 3.0 9.0 0.00 0.00 0.00 68 1009.9
20260509184558 86 148 3.0 9.0 0.00 0.00 0.00 66 1010.0
20260509184055 86 219 4.0 9.0 0.00 0.00 0.00 70 1010.1
20260509183556 86 241 1.0 6.0 0.00 0.00 0.00 69 1010.2
20260509183059 85 263 3.0 8.0 0.00 0.00 0.00 69 1010.3
20260509182552 85 309 3.0 8.0 0.00 0.00 0.00 69 1010.3
20260509182052 85 146 3.0 8.0 0.00 0.00 0.00 71 1010.4
20260509181556 85 179 2.0 8.0 0.00 0.00 0.00 70 1010.4
20260509181053 84 238 3.0 8.0 0.00 0.00 0.00 74 1010.6
20260509180556 84 217 3.0 8.0 0.00 0.00 0.00 74 1010.7
20260509180057 84 159 5.0 8.0 0.00 0.00 0.00 75 1010.8
20260509175557 84 197 2.0 7.0 0.00 0.00 0.00 78 1010.8
20260509175056 84 242 2.0 7.0 0.00 0.00 0.00 78 1010.8
20260509174555 83 221 4.0 6.0 0.00 0.00 0.00 78 1010.8
20260509174053 84 193 2.0 7.0 0.00 0.00 0.00 77 1010.9
20260509173552 83 217 3.0 7.0 0.00 0.00 0.00 79 1010.9
20260509173118 83 188 4.0 6.0 0.00 0.00 0.00 79 1011.0
20260509172556 83 207 3.0 4.0 0.00 0.00 0.00 79 1011.2
20260509172055 82 195 2.0 4.0 0.00 0.00 0.00 78 1011.3
20260509171553 82 124 2.0 5.0 0.00 0.00 0.00 81 1011.2
20260509171055 82 214 3.0 6.0 0.00 0.00 0.00 79 1011.2
20260509170556 82 212 2.0 6.0 0.00 0.00 0.00 80 1011.3
20260509170112 82 232 3.0 6.0 0.00 0.00 0.00 80 1011.4
20260509165556 82 147 2.0 4.0 0.00 0.00 0.00 79 1011.4
20260509165053 82 257 1.0 4.0 0.00 0.00 0.00 79 1011.4
20260509164602 82 223 1.0 4.0 0.00 0.00 0.00 80 1011.4
20260509164053 82 0 0.0 4.0 0.00 0.00 0.00 81 1011.3
20260509163554 81 224 2.0 4.0 0.00 0.00 0.00 82 1011.3
20260509163053 80 171 1.0 3.0 0.00 0.00 0.00 85 1011.2
20260509162553 80 274 1.0 3.0 0.00 0.00 0.00 84 1011.2
20260509162057 79 309 1.0 4.0 0.00 0.00 0.00 85 1011.1
20260509161556 79 308 1.0 6.0 0.00 0.00 0.00 86 1011.1
20260509161052 78 158 3.0 6.0 0.00 0.00 0.00 88 1011.0
20260509160553 78 224 2.0 5.0 0.00 0.00 0.00 90 1011.0
20260509160059 78 227 2.0 5.0 0.00 0.00 0.00 91 1010.9
20260509155552 77 220 0.0 4.0 0.00 0.00 0.00 93 1010.8
20260509155055 76 295 2.0 6.0 0.00 0.00 0.00 95 1011.0
20260509154552 76 262 2.0 6.0 0.00 0.00 0.00 96 1010.9
20260509154056 76 338 4.0 6.0 0.00 0.00 0.00 97 1011.0
20260509153556 76 321 3.0 6.0 0.00 0.00 0.00 97 1011.1
20260509153054 75 333 4.0 6.0 0.00 0.00 0.00 97 1011.1
20260509152552 75 324 4.0 6.0 0.00 0.00 0.00 97 1011.2
20260509152056 75 307 3.0 5.0 0.00 0.00 0.00 97 1011.2
20260509151616 75 299 3.0 5.0 0.00 0.00 0.00 97 1011.3
20260509151056 75 280 3.0 5.0 0.00 0.00 0.00 97 1011.3
20260509150556 75 305 2.0 5.0 0.00 0.00 0.00 97 1011.2
20260509150055 75 0 1.0 5.0 0.00 0.00 0.00 98 1011.1
20260509145553 74 295 3.0 5.0 0.00 0.00 0.00 97 1011.1
20260509145055 74 0 1.0 3.0 0.00 0.00 0.00 97 1011.0
20260509144558 74 0 0.0 3.0 0.00 0.00 0.00 97 1010.9
20260509144054 74 217 2.0 3.0 0.00 0.00 0.00 97 1011.0
20260509143553 74 158 2.0 3.0 0.00 0.00 0.00 97 1010.7
20260509143105 74 134 2.0 2.0 0.00 0.00 0.00 97 1010.8
20260509142556 74 0 0.0 0.0 0.00 0.00 0.00 98 1010.7
20260509142054 74 0 0.0 0.0 0.00 0.00 0.00 98 1010.6
20260509141554 74 0 0.0 0.0 0.00 0.00 0.00 98 1010.6
20260509141053 74 0 0.0 5.0 0.00 0.00 0.00 98 1010.5
20260509140556 74 0 2.0 5.0 0.00 0.00 0.00 98 1010.2
20260509140053 74 115 2.0 3.0 0.00 0.00 0.00 98 1009.8
20260509135556 74 128 2.0 3.0 0.00 0.00 0.00 98 1009.8
20260509135058 73 115 2.0 6.0 0.00 0.00 0.00 98 1009.9
20260509134555 73 139 2.0 8.0 0.00 0.00 0.00 98 1010.0
20260509134054 73 146 5.0 8.0 0.00 0.00 0.00 98 1010.1
20260509133553 73 164 6.0 10.0 0.00 0.00 0.00 98 1010.3
20260509133058 74 195 6.0 10.0 0.00 0.00 0.00 98 1010.7
20260509132553 74 197 7.0 10.0 0.00 0.00 0.00 98 1010.8
20260509132052 74 174 6.0 10.0 0.00 0.00 0.00 98 1010.7
20260509131604 74 191 7.0 10.0 0.00 0.00 0.00 98 1011.1
20260509131052 73 165 6.0 10.0 0.00 0.00 0.00 98 1011.1
20260509130555 73 162 7.0 10.0 0.00 0.00 0.00 98 1010.9
20260509130126 73 149 6.0 10.0 0.00 0.00 0.00 98 1010.6
20260509125556 73 151 5.0 7.0 0.00 0.00 0.00 98 1010.7
20260509125052 73 167 5.0 6.0 0.00 0.00 0.00 98 1010.8
20260509124553 73 150 4.0 5.0 0.00 0.00 0.00 98 1010.9
20260509124055 73 160 1.0 3.0 0.00 0.00 0.00 98 1011.2
20260509123557 73 0 0.0 3.0 0.00 0.00 0.00 98 1011.4
20260509123119 73 83 2.0 3.0 0.00 0.00 0.00 98 1011.3
20260509122556 73 53 0.0 3.0 0.00 0.00 0.00 98 1011.3
20260509122055 73 72 2.0 3.0 0.00 0.00 0.00 98 1011.3
20260509121554 73 58 2.0 4.0 0.00 0.00 0.00 97 1011.1
20260509121056 73 41 3.0 4.0 0.00 0.00 0.00 97 1011.2
20260509120556 73 39 2.0 3.0 0.00 0.00 0.00 97 1011.1
20260509120056 73 0 0.0 1.0 0.00 0.00 0.00 97 1011.1
20260509115556 73 0 0.0 5.0 0.00 0.00 0.00 97 1010.9
20260509115055 73 0 1.0 5.0 0.00 0.00 0.00 97 1011.0
20260509114626 73 51 3.0 5.0 0.00 0.00 0.00 97 1010.8
20260509114055 73 29 3.0 5.0 0.00 0.00 0.00 97 1010.8
20260509113554 73 31 1.0 3.0 0.00 0.00 0.00 97 1010.5
20260509113124 73 0 1.0 4.0 0.00 0.00 0.00 97 1010.2
20260509112600 73 74 3.0 4.0 0.00 0.00 0.00 97 1010.2
20260509112056 73 77 2.0 4.0 0.00 0.00 0.00 97 1010.4
20260509111553 73 53 3.0 4.0 0.00 0.00 0.00 97 1010.5
20260509111055 73 42 1.0 3.0 0.00 0.00 0.00 97 1010.7
20260509110557 73 0 0.0 2.0 0.00 0.00 0.00 97 1010.7
20260509110100 73 108 0.0 2.0 0.00 0.00 0.00 97 1010.6
20260509105555 73 0 0.0 2.0 0.00 0.00 0.00 97 1010.5
20260509105056 73 0 0.0 3.0 0.00 0.00 0.00 97 1010.4
20260509104555 73 0 1.0 3.0 0.00 0.00 0.00 97 1010.3
20260509104056 73 129 0.0 3.0 0.00 0.00 0.00 97 1010.3
20260509103555 73 0 0.0 2.0 0.00 0.00 0.00 97 1010.6
20260509103104 73 0 0.0 3.0 0.00 0.00 0.00 97 1010.5
20260509102555 73 0 1.0 3.0 0.00 0.00 0.00 97 1010.3
20260509102056 73 0 0.0 0.0 0.00 0.00 0.00 97 1010.1
20260509101601 73 0 0.0 0.0 0.00 0.00 0.00 97 1010.1
20260509101055 73 0 0.0 2.0 0.00 0.00 0.00 97 1010.2
20260509100555 73 0 0.0 3.0 0.00 0.00 0.00 97 1010.2
20260509100054 73 38 1.0 3.0 0.00 0.00 0.00 97 1010.2
20260509095555 73 0 1.0 3.0 0.00 0.00 0.00 97 1010.2
20260509095055 73 56 2.0 3.0 0.00 0.00 0.00 97 1010.1
20260509094602 73 60 2.0 3.0 0.00 0.00 0.00 97 1009.9
20260509094058 73 64 0.0 3.0 0.00 0.00 0.00 97 1009.9
20260509093556 73 0 0.0 0.0 0.00 0.00 0.00 97 1010.1
20260509093058 73 0 0.0 0.0 0.00 0.00 0.00 97 1010.2
20260509092555 73 0 0.0 0.0 0.00 0.00 0.00 97 1010.2
20260509092055 73 0 0.0 0.0 0.00 0.00 0.00 97 1010.2
20260509091555 73 0 0.0 0.0 0.00 0.00 0.00 97 1010.2
20260509091055 73 0 0.0 0.0 0.00 0.00 0.00 97 1010.2
20260509090556 73 0 0.0 2.0 0.00 0.00 0.00 97 1010.1
20260509090057 73 0 0.0 2.0 0.00 0.00 0.00 97 1009.9
20260509085555 73 95 0.0 4.0 0.00 0.00 0.00 97 1009.8
20260509085055 73 117 1.0 4.0 0.00 0.00 0.00 97 1009.8
20260509084608 73 112 2.0 4.0 0.00 0.00 0.00 97 1009.8
20260509084055 73 120 2.0 4.0 0.00 0.00 0.00 97 1009.9
20260509083555 73 108 2.0 4.0 0.00 0.00 0.00 97 1009.9
20260509083053 73 135 2.0 6.0 0.00 0.00 0.00 96 1009.9
20260509082555 73 120 3.0 6.0 0.00 0.00 0.00 96 1009.8
20260509082056 73 125 3.0 4.0 0.00 0.00 0.00 96 1009.9
20260509081559 73 139 2.0 4.0 0.00 0.00 0.00 96 1010.1
20260509081056 73 131 2.0 6.0 0.00 0.00 0.00 96 1010.1
20260509080555 73 151 3.0 6.0 0.00 0.00 0.00 96 1010.2
20260509080059 73 166 4.0 8.0 0.00 0.00 0.00 96 1010.0
20260509075555 73 149 5.0 8.0 0.00 0.00 0.00 96 1009.9
20260509075056 72 160 4.0 7.0 0.00 0.00 0.00 96 1009.9
20260509074555 72 156 4.0 7.0 0.00 0.00 0.00 96 1010.1
20260509074055 72 160 3.0 5.0 0.00 0.00 0.00 96 1010.2
20260509073555 72 153 3.0 5.0 0.00 0.00 0.00 96 1010.2
20260509073055 72 166 3.0 4.0 0.00 0.00 0.00 96 1010.3
20260509072555 72 203 3.0 4.0 0.00 0.00 0.00 96 1010.2
20260509072054 72 134 2.0 6.0 0.00 0.00 0.00 95 1010.1
20260509071555 72 150 3.0 6.0 0.00 0.00 0.00 95 1010.1
20260509071056 72 193 4.0 6.0 0.00 0.00 0.00 95 1010.2
20260509070556 72 135 4.0 8.0 0.00 0.00 0.00 95 1010.2
20260509070056 72 190 4.0 8.0 0.00 0.00 0.00 95 1010.1
20260509065555 72 164 4.0 8.0 0.00 0.00 0.00 95 1010.0
20260509065055 72 162 3.0 8.0 0.00 0.00 0.00 95 1009.9
20260509064600 72 156 5.0 7.0 0.00 0.00 0.00 95 1009.9
20260509064055 72 162 5.0 7.0 0.00 0.00 0.00 95 1010.0
20260509063555 72 139 5.0 7.0 0.00 0.00 0.00 95 1010.1
20260509063056 72 145 4.0 9.0 0.00 0.00 0.00 95 1010.0
20260509062559 73 134 5.0 11.0 0.00 0.00 0.00 95 1010.0
20260509062055 72 129 7.0 11.0 0.00 0.00 0.00 95 1009.9
20260509061608 72 148 7.0 11.0 0.00 0.00 0.00 95 1009.9
20260509061052 72 149 6.0 11.0 0.00 0.00 0.00 95 1010.0
20260509060556 72 158 8.0 11.0 0.00 0.00 0.00 94 1010.2
20260509060058 73 152 7.0 9.0 0.00 0.00 0.00 94 1010.3
20260509055553 73 141 7.0 9.0 0.00 0.00 0.00 94 1010.3
20260509055059 73 143 6.0 10.0 0.00 0.00 0.00 94 1010.4
20260509054611 73 158 7.0 10.0 0.00 0.00 0.00 94 1010.6
20260509054055 73 150 6.0 9.0 0.00 0.00 0.00 94 1010.7
20260509053555 73 172 6.0 9.0 0.00 0.00 0.00 94 1010.7
20260509053104 73 163 6.0 8.0 0.00 0.00 0.00 94 1010.8
20260509052555 73 145 5.0 8.0 0.00 0.00 0.00 94 1010.8
20260509052052 73 136 6.0 8.0 0.00 0.00 0.00 94 1010.8
20260509051604 73 142 5.0 6.0 0.00 0.00 0.00 94 1010.8
20260509051055 73 125 4.0 7.0 0.00 0.00 0.00 94 1010.7
20260509050553 73 133 4.0 10.0 0.00 0.00 0.00 94 1010.7
20260509050100 73 138 5.0 10.0 0.00 0.00 0.00 94 1010.6
20260509045552 73 122 4.0 8.0 0.00 0.00 0.00 94 1010.6
20260509045056 73 129 4.0 8.0 0.00 0.00 0.00 93 1010.5
20260509044612 73 136 6.0 8.0 0.00 0.00 0.00 93 1010.3
20260509044053 73 119 5.0 8.0 0.00 0.00 0.00 93 1010.4
20260509043556 73 110 4.0 7.0 0.00 0.00 0.00 93 1010.4
20260509043058 73 122 5.0 8.0 0.00 0.00 0.00 93 1010.3
20260509042552 73 118 5.0 8.0 0.00 0.00 0.00 93 1010.3
20260509042056 73 131 4.0 8.0 0.00 0.00 0.00 93 1010.4
20260509041556 73 118 4.0 6.0 0.00 0.00 0.00 93 1010.4
20260509041052 73 122 4.0 8.0 0.00 0.00 0.00 93 1010.3
20260509040553 73 132 3.0 9.0 0.00 0.00 0.00 94 1010.4
20260509040056 73 120 6.0 10.0 0.00 0.00 0.00 94 1010.3
20260509035558 73 141 6.0 10.0 0.00 0.00 0.00 94 1010.2
20260509035056 73 139 7.0 10.0 0.00 0.00 0.00 94 1010.2
20260509034555 73 119 7.0 10.0 0.00 0.00 0.00 94 1010.2
20260509034055 73 140 5.0 9.0 0.00 0.00 0.00 93 1010.3